Regional Weather Roundup
Issued by NWS

Home | Current Version | Previous Version | Text Only | Print | Product List | Glossary Off
Versions: 1 2 3 4 5 6 7 8 9 10 11 12 13 14 15 16 17 18 19 20 21 22 23 24 25 26 27 28 29 30 31 32 33 34 35 36 37 38 39 40 41 42 43 44 45 46 47 48 49 50

000
ASUS45 KABQ 041101
RWRNM
NEW MEXICO REGIONAL WEATHER ROUNDUP
NATIONAL WEATHER SERVICE ALBUQUERQUE NM
500 AM MDT SAT JUL 04 2015

NOTE: "FAIR" MEANS FEW OR NO CLOUDS BELOW 12,000 FEET AGL WITH NO
       SIGNIFICANT WEATHER OR OBSTRUCTIONS TO VISION.

      THIS PRODUCT IS RELEASED AS TWO VERSIONS.  ONE VERSION NEAR
      THE TOP OF THE HOUR CONTAINING PRELIMINARY DATA FROM ALBUQUERQUE
      AND OTHER STATIONS.  A FINAL VERSION WITH ADDITIONAL DATA IS
      ISSUED ABOUT 10 MINUTES AFTER THE HOUR.

NMZ501-503-504-510>518-041200-
NORTHWEST PLATEAU/NORTHCENTRAL MOUNTAINS

CITY           SKY/WX    TMP DP  RH WIND       PRES   REMARKS
FARMINGTON     CLEAR     60  53  77 E7        30.13R
SANTA FE       MOCLDY    63  52  67 E7        30.21F
TAOS           PTCLDY    55  43  62 E6        30.28S
ANGEL FIRE     FAIR      47  46  96 CALM      30.37S

$$
NMZ402-403-502-505>509-041200-
WESTCENTRAL MOUNTAINS/SOUTHWEST MOUNTAINS

CITY           SKY/WX    TMP DP  RH WIND       PRES   REMARKS
GALLUP         MOCLDY    63  52  67 N3        30.19S
GRANTS         CLEAR     58  57  94 SE3       30.22S
SILVER CITY      N/A     66  63  88 CALM      30.14R

$$
NMZ407-409-411-412-041200-
SOUTHERN DESERTS

CITY           SKY/WX    TMP DP  RH WIND       PRES   REMARKS
LORDSBURG      FAIR      70  59  68 S5        30.04S
DEMING         CLOUDY    69  66  90 CALM      30.06R
HOLLOMAN AFB   PTCLDY    66  61  83 NW3       30.04S
ALAMOGORDO     PTCLDY    68  59  73 N5        30.06S
T OR C         MOCLDY    69  60  73 NW5       30.09S

$$
NMZ519>523-041200-
CENTRAL VALLEYS/CENTRAL HIGHLANDS

CITY           SKY/WX    TMP DP  RH WIND       PRES   REMARKS
ALBUQUERQUE    MOCLDY    71  55  56 VRB5      30.15R
DOUBLE EAGLE   PTCLDY    62  56  82 CALM      30.18S
MORIARTY ARPT    N/A     58  54  87 CALM      30.23S
CLINES CORNERS MOCLDY    56  54  93 E6        30.26S
BELEN          FAIR      64  55  72 CALM      30.14S
SOCORRO        NOT AVBL

$$
NMZ524>526-539-540-041200-
SOUTHCENTRAL MOUNTAINS

CITY           SKY/WX    TMP DP  RH WIND       PRES   REMARKS
RUIDOSO        NOT AVBL

$$
NMZ527>531-041200-
NORTHEAST HIGHLANDS/NORTHEAST PLAINS

CITY           SKY/WX    TMP DP  RH WIND       PRES   REMARKS
LAS VEGAS      CLOUDY    58  57  97 S10       30.26S FOG
RATON          CLOUDY    60  59  96 SW6       30.20F
CLAYTON        CLEAR     62  58  86 SW12      30.11F

$$
NMZ532>537-041200-
EASTCENTRAL PLAINS

CITY           SKY/WX    TMP DP  RH WIND       PRES   REMARKS
TUCUMCARI      PTCLDY    64  57  78 NW9       30.08S
CANNON AFB     PTCLDY    65  60  84 SW3       30.09F
CLOVIS AIRPORT CLOUDY    66  57  72 W8          N/A

$$
NMZ028-029-538-041200-
SOUTHEAST PLAINS

CITY           SKY/WX    TMP DP  RH WIND       PRES   REMARKS
ROSWELL        PTCLDY    67  61  81 NE6       30.06R
ARTESIA        PTCLDY    68  61  77 CALM      30.06S
CARLSBAD       PTCLDY    69  64  84 CALM      30.02S
HOBBS          PTCLDY    64  63  94 CALM      30.08R


$$


USA.gov is the U.S. government's official web portal to all federal, state and local government web resources and services.